EDT,Max TemperatureF,Mean TemperatureF,Min TemperatureF,Max Dew PointF,MeanDew PointF,Min DewpointF,Max Humidity, Mean Humidity, Min Humidity, Max Sea Level PressureIn, Mean Sea Level PressureIn, Min Sea Level PressureIn, Max VisibilityMiles, Mean VisibilityMiles, Min VisibilityMiles, Max Wind SpeedMPH, Mean Wind SpeedMPH, Max Gust SpeedMPH,PrecipitationIn, CloudCover, Events, WindDirDegrees
2013-4-1,67,52,38,52,38,22,100,65,35,29.99,29.81,29.73,10,7,0,24,4,34,0.00,4,,283
2013-4-2,50,40,30,26,18,11,84,40,23,30.19,30.09,30.00,10,10,10,16,6,28,0.00,0,,301
2013-4-3,53,40,28,26,18,13,78,43,22,30.39,30.26,30.19,10,10,10,21,5,28,0.00,0,,315
2013-4-4,51,38,26,40,21,15,93,48,24,30.43,30.30,30.11,10,10,7,8,3,,0.00,2,,189
2013-4-5,67,54,40,41,33,23,100,58,23,30.10,29.94,29.82,10,9,5,16,4,25,0.00,3,,325
2013-4-6,58,48,39,31,23,16,56,38,25,30.34,30.25,30.05,10,10,10,9,5,18,0.00,0,,13
2013-4-7,72,57,42,42,37,32,81,50,29,30.30,30.14,29.99,10,10,10,14,6,23,0.00,0,,178
2013-4-8,83,66,50,53,47,42,81,47,26,30.08,30.02,29.95,10,10,7,9,3,20,0.00,1,,180
2013-4-9,88,72,56,56,53,52,86,49,29,30.08,30.00,29.93,10,10,10,12,4,16,0.00,0,,221
2013-4-10,93,76,59,57,55,53,85,45,27,29.97,29.89,29.78,10,10,7,13,3,18,0.00,0,,202
2013-4-11,89,73,57,64,59,55,99,66,36,29.89,29.84,29.74,10,10,5,22,3,30,0.00,1,,100
2013-4-12,74,64,53,67,58,54,100,95,76,29.84,29.70,29.59,10,7,1,10,7,32,0.00,7,,48
2013-4-13,69,56,44,53,44,38,100,65,35,29.95,29.89,29.78,10,9,2,10,4,17,0.00,1,,294
2013-4-14,68,55,42,47,41,36,100,62,33,30.15,30.08,29.96,10,10,5,12,2,17,0.00,0,,331
2013-4-15,63,58,54,55,50,46,99,73,61,30.30,30.23,30.14,10,10,7,10,2,,0.00,7,,104
2013-4-16,77,66,55,61,56,50,88,72,51,30.33,30.24,30.12,10,10,10,14,4,17,0.00,5,,164
2013-4-17,78,68,58,64,61,56,100,78,56,30.25,30.18,30.12,10,9,0,9,2,,0.00,3,,68
2013-4-18,79,69,59,66,61,57,100,82,57,30.24,30.16,30.02,10,8,2,9,2,16,0.00,6,,131
2013-4-19,81,67,53,68,63,50,100,79,58,30.02,29.81,29.60,10,9,2,16,7,29,0.00,6,,182
2013-4-20,61,54,48,50,33,27,90,45,28,30.34,30.07,29.80,10,10,7,16,8,26,0.00,2,,309
2013-4-21,56,48,41,35,28,22,69,46,30,30.61,30.52,30.35,10,10,10,10,4,,0.00,0,,21
2013-4-22,58,46,35,39,37,36,100,67,45,30.60,30.51,30.42,10,10,10,13,4,21,0.00,4,,69
2013-4-23,63,55,46,46,43,39,95,70,49,30.42,30.27,30.14,10,10,7,8,5,,0.00,5,,35
2013-4-24,81,62,43,58,50,43,100,70,35,30.14,29.98,29.79,10,9,3,14,3,25,0.00,1,,193
2013-4-25,67,57,47,53,36,29,75,48,25,30.31,30.21,29.96,10,10,10,20,9,29,0.00,2,,319
2013-4-26,67,55,43,45,39,32,100,57,28,30.46,30.39,30.31,10,10,7,9,2,16,0.00,1,,331
2013-4-27,72,56,41,44,41,36,100,64,29,30.43,30.37,30.30,10,10,10,7,1,,0.00,0,,116
2013-4-28,70,56,43,48,42,35,100,60,29,30.31,30.24,30.16,10,10,7,13,2,20,0.00,4,,154
2013-4-29,62,58,54,62,57,44,100,96,58,30.17,30.11,30.07,10,7,2,9,3,,0.00,8,,119
2013-4-30,60,56,53,60,58,53,100,98,88,30.29,30.20,30.10,10,5,2,8,2,,0.00,8,,67